Retour au catalogue

STARLINK-37525

ActifCommunicationsVLEO
NORAD 69462·PAYLOAD·🇺🇸 United States

Lancé Jun 8, 2026 depuis Cape Canaveral Space Force Station

Loading…

Prochains Passages (prochaines 24 heures)

TLE

FraisSource: CelesTrak SupGP

Époque: Sep 15, 2026, 04:32 UTC

1 69462C 26127V   26258.18937500 -.00007755  00000+0 -22918-3 0  2589
2 69462  53.1573 190.7023 0001305  87.8577 301.4427 15.34386779    11

Suivez STARLINK-37525 en temps réel avec AllMySat

Download on the App Store